Back to catalog

CZ-6A DEB

AlivePO
NORAD 55196·DEBRIS·🇨🇳 China

Launched Nov 11, 2022 from Taiyuan Satellite Launch Center

Loading…

Next Passes (next 24 hours)

TLE

FreshSource: Space-Track

Epoch: Sep 13, 2026, 19:10 UTC

1 55196U 22151VM  26256.79863157  .00010702  00000-0  12340-2 0  9996
2 55196  98.6274 339.6809 0055633 334.0512  25.7913 14.84752418198810

Track CZ-6A DEB in real time with AllMySat

Download on the App Store